Torna al catalogo

NOAA 16 DEB

AttivoPO
NORAD 41078·DEBRIS·🇺🇸 United States

Lanciato Sep 21, 2000 da Vandenberg Space Force Base

Loading…

Prossimi Passaggi (prossime 24 ore)

TLE

AggiornatoSource: Space-Track

Epoca: Sep 14, 2026, 13:33 UTC

1 41078U 00055AM  26257.56468985  .00000257  00000-0  30669-3 0  9994
2 41078  98.9391   5.8952 0289329 146.0296 215.9749 13.58517486534907

Traccia NOAA 16 DEB in tempo reale con AllMySat

Download on the App Store